TimePDT,TemperatureF,Dew PointF,Humidity,Sea Level PressureIn,VisibilityMPH,Wind Direction,Wind SpeedMPH,Gust SpeedMPH,PrecipitationIn,Events,Conditions,WindDirDegrees,DateUTC
12:52 AM,36.0,33.1,89,29.94,-9999.0,NE,4.6,-,N/A,,Unknown,50,2012-10-24 07:52:00
1:52 AM,35.1,30.9,85,29.93,-9999.0,NE,4.6,-,N/A,,Unknown,50,2012-10-24 08:52:00
2:52 AM,36.0,33.1,89,29.92,-9999.0,Calm,Calm,-,N/A,,Unknown,0,2012-10-24 09:52:00
3:52 AM,36.0,32.0,86,29.91,-9999.0,Calm,Calm,-,N/A,,Unknown,0,2012-10-24 10:52:00
4:52 AM,37.0,33.1,86,29.91,-9999.0,ENE,3.5,-,N/A,,Unknown,60,2012-10-24 11:52:00
5:52 AM,37.9,34.0,86,29.94,-9999.0,Calm,Calm,-,N/A,,Unknown,0,2012-10-24 12:52:00
6:52 AM,43.0,37.9,82,29.95,-9999.0,Calm,Calm,-,N/A,,Unknown,0,2012-10-24 13:52:00
7:52 AM,46.0,41.0,83,29.96,-9999.0,Calm,Calm,-,N/A,,Unknown,0,2012-10-24 14:52:00
8:52 AM,51.1,44.1,77,29.98,-9999.0,SW,8.1,-,N/A,,Unknown,220,2012-10-24 15:52:00
9:52 AM,55.0,43.0,64,30.00,-9999.0,West,3.5,-,N/A,,Unknown,260,2012-10-24 16:52:00
10:52 AM,57.9,42.1,56,29.99,-9999.0,SSW,9.2,-,N/A,,Unknown,210,2012-10-24 17:52:00
11:52 AM,62.1,39.0,43,29.97,-9999.0,SSW,9.2,17.3,N/A,,Unknown,200,2012-10-24 18:52:00
12:52 PM,64.9,37.0,36,29.95,-9999.0,SW,11.5,17.3,N/A,,Unknown,230,2012-10-24 19:52:00
1:52 PM,66.0,36.0,33,29.93,-9999.0,West,10.4,20.7,N/A,,Unknown,260,2012-10-24 20:52:00
2:52 PM,68.0,37.0,32,29.91,-9999.0,West,11.5,19.6,N/A,,Unknown,270,2012-10-24 21:52:00
3:52 PM,68.0,37.0,32,29.92,-9999.0,West,11.5,-,N/A,,Unknown,260,2012-10-24 22:52:00
4:52 PM,66.9,39.0,36,29.92,-9999.0,West,6.9,-,N/A,,Unknown,270,2012-10-24 23:52:00
5:52 PM,59.0,46.0,62,29.96,-9999.0,SSW,11.5,-,N/A,,Unknown,210,2012-10-25 00:52:00
6:52 PM,55.9,46.0,69,29.97,-9999.0,SW,9.2,-,N/A,,Unknown,230,2012-10-25 01:52:00
7:52 PM,52.0,46.0,80,29.99,-9999.0,Calm,Calm,-,N/A,,Unknown,0,2012-10-25 02:52:00
8:52 PM,44.1,39.9,85,30.00,-9999.0,NNE,6.9,-,N/A,,Unknown,20,2012-10-25 03:52:00
9:52 PM,43.0,39.0,86,30.01,-9999.0,NE,5.8,-,N/A,,Unknown,40,2012-10-25 04:52:00
10:52 PM,41.0,37.9,89,30.01,-9999.0,NNE,3.5,-,N/A,,Unknown,30,2012-10-25 05:52:00
11:52 PM,39.0,36.0,89,30.01,-9999.0,NE,3.5,-,N/A,,Unknown,50,2012-10-25 06:52:00